Home   Weather   Washim   Past weeks

Flag for India Past Weather in Washim, Maharashtra, India — Yesterday and Last 2 Weeks

Now
81 °F

Broken clouds.


Feels Like: 88 °F
Forecast: 73 / 81 °F
Wind: 2 mph from Southeast

Location: Nagpur Sonegaon

Current Time: Aug 20, 2017 at 9:54:38 am

Latest Report: Aug 20, 2017 at 9:00 am


Visibility: 1 mi

Pressure: 29.59 "Hg (27.81 "Hg at 546m altitude)

Humidity: 94%

Dew Point: 79 °F

Location of WashimLocation

Past Weather in Washim — Graph

°F

Washim Temperature Yesterday

Maximum temperature yesterday: 90 °F (at 1:30 pm)
Minimum temperature yesterday: 75 °F (at 12:00 am)
Average temperature yesterday: 83 °F

High & Low Weather Summary for the Past Weeks

 TemperatureHumidityPressure
High93 °F (Aug 15, 1:30 pm)100% (Aug 7, 8:30 am)29.86 "Hg (Aug 7, 8:30 am)
Low75 °F (Aug 6, 6:00 am)49% (Aug 16, 2:00 pm)29.50 "Hg (Aug 18, 3:30 pm)
Average82 °F83%29.68 "Hg
* Reported Aug 5 8:30 am — Aug 20 8:30 am, Washim. Weather by CustomWeather, © 2017

Note: Actual official high and low records may vary slightly from our data, if they occured in-between our weather recording intervals... More about our weather records

Advertising

Washim Weather History for the Previous 24 Hours

Scroll right to see more
 ConditionsComfort  
Time TempWeatherWind HumidityBarometerVisibility
8:30 am
Sun, Aug 20
81 °FBroken clouds.5 mph94%29.59 "Hg1 mi
8:00 am81 °FMore clouds than sun.5 mph94%29.59 "Hg1 mi
7:30 am79 °FFog.3 mph100%29.56 "Hg1 mi
7:00 am79 °FFog.2 mph94%29.56 "Hg1 mi
6:30 am79 °FDrizzle. More clouds than sun.No wind94%29.56 "Hg1 mi
5:30 am79 °FHaze.No wind94%29.56 "Hg2 mi
5:00 am79 °FPartly cloudy.2 mph94%29.53 "Hg2 mi
4:30 am79 °FRain. Partly cloudy.3 mph94%29.53 "Hg1 mi
4:00 am81 °FRain. Partly cloudy.5 mph89%29.53 "Hg1 mi
3:30 am81 °FPartly cloudy.3 mph89%29.53 "Hg2 mi
3:00 am82 °FPartly cloudy.6 mph84%29.53 "Hg2 mi
2:30 am82 °FPartly cloudy.2 mph84%29.53 "Hg2 mi
2:00 am82 °FPartly cloudy.8 mph84%29.56 "Hg2 mi
1:30 am82 °FPartly cloudy.3 mph84%29.56 "Hg2 mi
1:00 am82 °FPartly cloudy.2 mph84%29.56 "Hg2 mi
12:30 am82 °FPartly cloudy.5 mph84%29.59 "Hg2 mi
12:00 am84 °FPartly cloudy.2 mph79%29.59 "Hg2 mi
11:30 pm
Sat, Aug 19
82 °FPartly cloudy.No wind84%29.59 "Hg2 mi
11:00 pm82 °FPartly cloudy.No wind84%29.59 "Hg2 mi
10:30 pm82 °FPartly cloudy.No wind84%29.62 "Hg2 mi
10:00 pm82 °FPartly cloudy.2 mph84%29.59 "Hg2 mi
9:30 pm84 °FPartly cloudy.2 mph79%29.59 "Hg2 mi
9:00 pm84 °FPartly cloudy.3 mph79%29.59 "Hg2 mi
8:30 pm84 °FPartly cloudy.6 mph79%29.59 "Hg2 mi
8:00 pm84 °FPartly cloudy.3 mph79%29.56 "Hg2 mi
7:30 pm86 °FPartly cloudy.3 mph75%29.56 "Hg2 mi
7:00 pm86 °FBroken clouds.2 mph75%29.56 "Hg2 mi
6:30 pm86 °FBroken clouds.3 mph75%N/A2 mi
6:00 pm88 °FBroken clouds.3 mph66%N/A2 mi
5:30 pm88 °FScattered clouds.5 mph70%29.50 "Hg2 mi
5:00 pm88 °FScattered clouds.5 mph75%29.50 "Hg2 mi
4:30 pm90 °FScattered clouds.8 mph71%29.50 "Hg2 mi
4:00 pm90 °FScattered clouds.9 mph67%29.50 "Hg2 mi
3:30 pm90 °FScattered clouds.7 mph71%29.50 "Hg2 mi
3:00 pm90 °FScattered clouds.7 mph71%29.53 "Hg2 mi
2:30 pm88 °FScattered clouds.7 mph75%29.53 "Hg2 mi
2:00 pm90 °FScattered clouds.6 mph71%29.53 "Hg2 mi
1:30 pm90 °FScattered clouds.9 mph71%29.53 "Hg2 mi
1:00 pm88 °FScattered clouds.12 mph70%29.56 "Hg2 mi
12:30 pm88 °FScattered clouds.9 mph70%29.56 "Hg2 mi
12:00 pm88 °FScattered clouds.10 mph70%29.59 "Hg2 mi
11:30 am88 °FScattered clouds.7 mph75%29.59 "Hg2 mi
11:00 am86 °FScattered clouds.8 mph79%29.59 "Hg2 mi
10:30 am86 °FScattered clouds.No wind79%29.59 "HgN/A
10:00 am86 °FScattered clouds.No wind79%29.62 "HgN/A
9:30 am84 °FBroken clouds.No wind89%29.62 "HgN/A
9:00 am81 °FBroken clouds.No wind94%29.62 "HgN/A
Weather by CustomWeather, © 2017

See weather overviewHow to use our weather pages